Temperature
3 2 2 3 3 4 4 3 4 4 5 5 5 5 6 6 6 6 6 7 8 8 9 10 10 11 11 11 11 11 11 11 11 11 11 11 11 11 11 11 11 11 11 11
2 2 3 3 4 4 3 3 3 4 5 5 4 4 5 5 5 6 6 6 7 8 8 9 9 10 10 11 11 11 11 11 11 11 11 11 11 11 11 11 11 11 11 10
1 2 3 3 3 3 3 3 3 3 4 5 4 4 4 5 5 6 6 6 6 7 7 8 9 9 10 10 10 10 11 11 11 11 11 11 10 10 10 10 10 10 10 10
1 2 2 3 3 3 3 3 3 4 3 3 4 4 4 4 4 4 4 5 6 6 7 7 8 9 9 9 10 10 10 10 10 10 10 10 10 10 10 10 10 10 10 10
0 1 2 2 3 3 2 3 3 3 2 2 3 3 3 3 4 4 4 4 5 5 6 7 7 8 8 8 9 9 10 10 10 10 10 10 10 10 10 10 10 10 10 10
0 1 1 1 2 3 2 2 2 2 2 2 3 3 3 2 3 3 3 3 4 4 5 5 6 7 8 8 8 9 9 9 10 10 10 10 10 10 10 10 10 10 9 9
-0 0 1 1 1 2 2 1 1 1 2 2 3 2 2 2 2 3 3 2 3 4 4 5 5 6 7 7 8 8 8 9 9 9 9 9 9 9 9 10 9 9 9 9
-2 -1 0 1 1 0 0 1 1 1 1 2 2 2 1 1 1 2 2 2 2 3 3 4 5 6 6 7 7 7 8 8 9 9 9 9 9 9 9 9 9 9 9 9
-2 -1 0 1 1 0 0 0 1 1 1 1 1 0 1 1 1 1 1 1 2 2 3 3 4 5 6 6 7 7 7 8 8 8 8 8 8 8 8 8 9 8 8 8
-3 -2 -1 -0 1 0 -0 -0 -0 0 1 1 1 0 0 -0 0 0 0 0 1 2 2 3 3 4 5 6 6 6 7 7 7 8 8 8 8 8 8 8 8 8 8 8
-3 -3 -2 -1 -2 -1 -1 -1 -1 -1 0 1 0 0 -0 -0 -0 -0 -0 -0 0 1 2 2 3 3 4 5 5 6 6 6 7 7 7 7 7 7 7 8 8 8 7 7
-4 -4 -4 -3 -2 -1 -2 -2 -2 -1 -1 -1 -1 -0 -0 -1 -1 -1 -1 -0 -0 1 1 2 2 3 3 4 4 5 5 6 6 6 6 6 7 7 7 7 7 7 7 7
-4 -5 -4 -3 -2 -3 -3 -3 -3 -2 -2 -2 -2 -1 -1 -1 -1 -1 -1 -1 -1 0 1 1 1 2 2 3 3 4 4 5 5 5 5 6 6 6 6 6 6 7 6 6
-3 -5 -4 -4 -4 -4 -4 -3 -3 -3 -3 -3 -2 -2 -2 -2 -2 -2 -2 -2 -1 -0 -0 0 1 1 2 2 2 3 3 4 4 5 5 5 5 5 5 5 6 6 6 6
-4 -5 -5 -4 -4 -4 -4 -3 -3 -4 -3 -3 -3 -3 -3 -3 -3 -3 -3 -2 -2 -1 -1 -0 0 0 1 1 2 2 3 3 4 4 4 5 5 5 5 5 5 5 5 5
-6 -6 -5 -5 -4 -4 -3 -4 -4 -4 -4 -3 -3 -3 -3 -3 -3 -3 -3 -3 -3 -3 -2 -1 -1 -0 0 1 1 2 2 2 3 3 4 4 4 4 4 4 5 5 5 5
-7 -7 -6 -5 -5 -4 -4 -5 -4 -4 -5 -4 -4 -4 -4 -4 -4 -4 -4 -4 -4 -3 -3 -2 -1 -1 -0 0 1 1 2 2 2 3 3 3 3 4 4 4 4 4 4 4
-7 -7 -7 -6 -6 -5 -5 -5 -5 -5 -5 -5 -5 -5 -5 -4 -4 -3 -3 -4 -3 -3 -3 -2 -2 -1 -1 -0 0 1 1 1 2 2 2 3 3 3 3 3 3 3 3 3
-7 -7 -7 -7 -7 -6 -5 -5 -6 -6 -5 -5 -6 -5 -5 -5 -4 -4 -3 -3 -3 -3 -2 -2 -2 -1 -1 -1 -0 0 0 1 1 1 2 2 2 2 2 3 3 3 3 3
-7 -8 -8 -8 -6 -6 -6 -6 -6 -6 -5 -6 -6 -6 -6 -5 -5 -4 -4 -4 -3 -3 -2 -2 -2 -1 -1 -1 -1 -1 -0 0 0 1 1 1 1 2 2 2 2 2 2 2
-8 -9 -9 -8 -8 -7 -7 -6 -6 -6 -6 -6 -6 -6 -6 -6 -6 -5 -4 -4 -3 -3 -2 -2 -2 -2 -2 -1 -1 -1 -1 -1 -0 -0 0 0 1 1 1 1 1 1 1 1
-8 -8 -8 -8 -8 -7 -7 -7 -7 -7 -6 -6 -6 -6 -7 -6 -6 -5 -5 -4 -4 -3 -3 -2 -2 -2 -2 -2 -2 -2 -2 -1 -1 -1 -1 -0 -0 0 0 1 1 1 1 1
-9 -9 -9 -9 -8 -7 -7 -7 -7 -7 -7 -7 -7 -7 -7 -7 -6 -6 -5 -5 -4 -4 -3 -3 -3 -3 -3 -3 -2 -2 -2 -2 -2 -1 -1 -1 -1 -1 -0 -0 0 0 0 0
-10 -10 -10 -9 -9 -8 -7 -7 -7 -7 -7 -7 -7 -7 -7 -7 -6 -6 -6 -5 -5 -4 -4 -4 -3 -3 -3 -3 -3 -3 -3 -2 -2 -2 -2 -1 -1 -1 -1 -1 -1 -0 -0 -0
-11 -11 -10 -10 -9 -8 -7 -7 -7 -7 -7 -7 -7 -7 -7 -7 -7 -7 -6 -6 -5 -5 -5 -4 -4 -4 -4 -3 -3 -3 -3 -3 -3 -3 -2 -2 -2 -2 -2 -2 -2 -1 -1 -1
-11 -11 -10 -9 -8 -9 -8 -7 -7 -7 -7 -8 -8 -7 -7 -8 -7 -7 -7 -6 -6 -6 -5 -5 -5 -5 -4 -4 -4 -4 -4 -3 -3 -3 -3 -3 -3 -3 -2 -2 -2 -2 -2 -2
Wind_Speed
1 1 4 7 8 5 4 5 6 7 6 4 7 8 9 5 2 3 3 3 3 4 3 1 3 4 6 6 7 8 8 7 6 5 5 6 5 4 4 5 7 9 9 10
2 4 6 5 5 5 5 6 6 7 6 5 6 9 8 4 3 3 4 4 4 3 2 1 1 3 4 6 7 8 8 8 8 6 5 4 5 4 4 4 6 8 9 10
4 4 3 3 4 6 7 7 6 6 7 4 3 6 5 3 1 1 2 2 2 3 3 2 2 2 3 4 5 7 7 7 7 6 5 4 3 3 3 4 4 5 8 9
3 4 4 4 4 5 9 5 5 5 3 4 3 4 4 3 2 2 3 2 2 2 1 1 2 2 3 3 3 5 6 6 6 7 7 8 7 5 5 4 4 5 7 8
4 4 4 5 6 5 5 5 5 5 4 3 3 3 4 1 3 4 4 3 2 1 0 1 2 3 2 2 2 3 4 5 5 6 7 8 6 4 3 4 5 5 5 7
4 3 2 4 5 4 2 1 1 1 2 4 5 4 3 2 3 4 3 3 2 2 2 2 2 2 2 2 2 3 4 4 4 5 6 7 7 6 6 5 5 5 4 4
6 4 3 2 4 3 2 2 1 1 3 5 3 3 3 4 4 2 2 3 3 3 4 3 3 3 2 2 2 2 4 3 3 4 5 5 6 7 8 7 6 5 4 3
4 6 4 4 2 2 3 3 3 3 3 2 2 3 3 4 6 5 3 3 3 4 4 4 3 2 2 2 2 2 3 3 3 4 4 4 4 5 5 6 5 6 5 5
2 5 5 5 3 1 1 2 2 1 1 1 2 3 5 7 10 8 6 6 5 4 4 4 4 4 3 3 2 2 2 2 2 3 3 3 3 4 4 4 4 4 4 4
1 5 6 6 4 3 1 1 1 1 2 2 1 1 3 7 8 8 6 5 5 5 5 5 5 5 5 3 2 2 2 2 1 2 2 2 2 3 3 4 4 4 4 4
1 1 6 5 4 5 4 2 1 0 1 2 1 2 2 5 5 5 5 5 4 4 5 5 5 5 5 5 4 4 3 2 1 1 1 2 2 2 2 3 4 4 4 5
2 1 3 4 2 3 2 2 1 1 1 1 1 2 4 5 5 5 5 6 5 5 4 5 5 6 7 7 6 5 3 2 1 0 1 2 2 2 2 3 3 4 4 4
2 2 4 6 5 6 4 6 5 2 1 1 2 3 5 8 8 8 7 6 6 5 5 5 6 6 7 7 6 5 5 3 2 1 1 2 2 2 2 2 2 3 4 4
2 2 2 2 3 4 5 7 5 3 0 1 2 4 8 11 10 10 8 7 6 5 5 5 6 6 6 6 6 6 5 5 3 2 1 1 1 2 2 1 2 2 3 4
3 1 1 3 3 2 4 7 5 2 2 2 3 3 7 9 8 8 7 6 7 7 7 6 5 5 5 6 6 6 6 5 4 2 2 1 0 1 1 1 2 2 3 3
3 1 1 3 3 3 5 7 5 4 3 2 3 4 6 7 6 7 7 7 7 7 8 7 6 5 5 5 5 5 5 5 4 3 2 2 0 1 1 1 1 2 3 3
1 1 1 3 5 4 4 4 3 2 3 1 3 4 7 7 8 7 6 7 7 7 8 7 6 5 4 4 4 4 4 4 4 3 3 2 1 1 1 1 2 2 2 3
2 2 1 2 3 2 4 2 2 2 2 3 3 5 5 6 7 5 4 5 7 7 7 7 6 5 4 4 4 4 4 4 3 3 3 3 2 0 0 1 2 2 2 3
2 3 1 1 1 5 4 3 2 2 4 3 5 7 7 7 5 3 5 6 6 6 6 6 5 5 4 4 4 3 4 3 3 3 3 3 2 1 1 1 1 2 2 2
3 3 3 1 1 4 4 6 6 1 3 5 5 7 7 6 4 5 8 8 8 7 6 6 6 5 4 4 3 3 3 3 3 3 3 3 2 1 0 1 1 1 2 2
3 2 1 1 3 5 4 6 3 2 5 7 6 6 5 3 4 7 8 8 7 7 7 6 5 5 4 4 3 3 3 3 3 3 3 2 2 1 1 1 1 2 2 2
2 1 2 2 2 5 4 2 0 4 5 5 5 5 5 6 7 7 7 7 8 7 7 6 6 5 5 4 3 3 4 4 3 2 3 2 2 1 1 2 1 2 3 3
3 4 3 5 5 3 2 3 4 3 4 5 5 6 6 6 7 8 8 7 7 7 7 6 6 5 5 4 3 3 4 3 3 3 2 2 3 2 1 1 2 2 2 2
3 1 2 4 6 5 5 4 4 4 5 6 6 6 5 6 7 8 7 7 7 7 6 6 6 5 5 5 5 4 3 3 2 2 2 2 2 2 2 1 1 1 1 2
4 2 2 5 6 6 5 5 6 6 6 6 6 5 5 5 7 7 7 7 6 6 6 5 5 5 5 5 5 5 4 2 2 2 2 2 2 1 1 2 1 0 0 1
3 4 4 5 4 4 6 6 5 6 6 6 6 7 6 5 6 6 6 6 6 6 5 5 6 5 4 4 5 5 4 2 1 1 1 1 1 1 1 1 2 4 2 2
Wind_Direction
19 101 218 225 221 235 225 230 261 267 276 255 245 261 277 285 240 241 242 233 240 256 275 226 180 173 171 171 176 179 174 173 167 168 172 170 173 170 164 160 161 164 163 161
29 261 252 245 243 253 252 250 262 288 290 268 251 261 270 266 233 222 240 238 241 265 294 229 150 148 167 178 181 182 180 176 175 179 180 171 163 167 167 158 160 167 164 163
211 271 295 288 269 263 259 236 244 266 311 295 247 275 263 268 264 269 257 248 249 231 234 226 179 167 163 176 184 186 184 179 176 166 155 137 129 128 149 166 172 172 171 167
278 292 314 305 279 265 265 250 254 262 266 267 215 256 272 259 310 305 283 268 259 257 248 215 165 159 169 194 181 174 175 172 170 165 163 160 168 176 182 176 177 171 174 173
290 315 313 280 276 265 252 276 261 248 222 263 240 228 286 338 298 288 287 290 292 304 110 157 148 163 157 159 158 163 157 157 161 169 170 168 169 171 158 158 164 175 178 177
272 282 278 272 297 268 265 332 347 136 162 241 225 196 287 321 266 298 321 341 342 28 48 43 56 93 98 106 122 134 140 146 155 161 168 173 170 163 158 165 175 181 183 183
333 316 319 323 334 341 21 102 87 203 207 237 174 179 251 328 333 312 315 339 358 37 52 48 47 68 83 100 121 133 143 145 146 154 163 174 177 173 177 180 181 180 179 190
341 317 328 343 332 282 260 189 183 198 213 264 145 209 256 344 350 3 19 30 30 39 41 37 35 56 85 98 111 131 150 157 153 160 171 175 171 176 183 184 183 188 191 192
318 292 319 334 344 351 297 246 239 176 175 203 244 294 315 357 3 9 21 28 21 22 33 32 27 32 43 61 80 129 146 145 154 168 169 167 175 177 181 181 180 188 186 181
246 285 310 322 356 2 322 299 69 157 177 222 246 277 317 345 348 352 5 9 2 13 22 23 26 24 27 35 40 66 87 104 125 152 163 174 187 192 180 172 176 183 181 174
6 294 317 350 15 345 4 0 4 211 237 181 210 281 343 342 339 340 345 359 0 11 18 17 19 20 26 35 42 49 51 56 67 119 147 147 172 180 171 170 180 182 182 176
353 64 298 284 297 359 28 359 1 170 289 295 160 280 343 353 355 1 358 359 7 13 20 24 26 29 29 29 30 35 34 34 28 106 154 159 158 155 168 180 181 175 178 183
19 51 346 343 354 7 13 6 6 0 96 116 166 272 338 0 7 9 6 2 7 12 24 26 28 30 27 22 20 23 23 16 17 36 130 140 148 156 172 188 186 178 176 176
56 87 155 218 278 318 333 348 2 24 101 223 243 275 330 349 353 351 354 1 4 13 24 25 24 21 20 19 17 15 14 11 13 21 55 129 166 177 184 190 189 184 178 173
60 65 258 252 274 320 342 338 349 347 287 227 279 288 313 334 337 337 349 4 13 14 13 15 15 12 11 14 13 12 8 6 8 15 16 346 218 161 160 167 173 178 175 175
49 36 329 299 300 327 333 342 337 323 308 280 309 300 313 328 348 356 2 7 6 2 360 359 1 4 4 4 2 3 2 358 6 14 3 352 50 126 141 154 154 170 178 172
26 74 15 294 317 343 321 328 328 317 314 291 275 293 330 339 342 338 342 355 351 348 349 348 347 347 345 346 352 353 352 357 9 14 7 3 22 91 136 154 147 161 178 166
164 147 177 309 14 274 259 321 332 305 326 354 327 321 320 313 309 305 333 343 338 339 339 338 339 338 341 346 351 356 4 11 13 13 10 7 7 36 126 143 151 159 162 160
153 149 124 119 278 281 300 337 347 296 296 349 332 326 330 329 334 331 346 346 330 327 325 325 326 327 338 347 349 359 8 15 13 1 353 356 6 38 112 153 160 158 143 140
62 95 118 117 197 257 279 313 315 237 298 340 334 322 329 348 346 311 328 333 332 335 334 333 336 343 350 347 352 6 2 5 355 342 338 342 355 28 108 143 149 133 129 138
22 35 112 183 233 266 289 312 357 108 290 317 315 312 316 301 270 291 311 321 327 331 334 338 344 351 347 345 357 360 354 340 335 341 348 355 8 21 66 106 119 129 133 129
189 197 212 179 224 264 324 10 127 260 299 309 309 309 309 302 307 315 319 322 330 335 340 346 351 350 351 352 357 353 339 332 342 358 359 6 17 24 60 96 101 118 132 133
206 204 208 206 224 260 272 259 277 292 296 299 305 306 309 311 316 323 324 326 330 334 337 346 351 347 350 352 352 343 330 336 352 11 10 12 18 26 50 94 117 116 127 143
283 252 218 261 268 277 284 291 309 306 295 299 301 305 311 308 313 320 322 325 331 334 336 341 348 347 343 346 348 341 331 340 8 12 11 18 33 33 35 35 99 143 156 161
253 216 243 263 283 307 296 287 295 302 306 311 315 312 311 311 310 310 314 319 324 327 331 339 341 335 331 340 347 348 347 2 15 19 17 24 25 35 43 35 33 115 214 195
214 194 203 240 250 246 276 288 298 299 302 305 311 316 317 309 302 307 310 316 320 323 330 337 339 336 335 343 346 348 349 360 21 28 18 15 29 44 54 66 42 36 45 52
Height
1472 1475 1475 1474 1474 1473 1474 1476 1475 1472 1468 1469 1468 1466 1463 1461 1461 1461 1461 1462 1462 1463 1465 1467 1469 1472 1475 1478 1481 1485 1488 1491 1495 1498 1500 1504 1507 1511 1514 1517 1520 1523 1525 1528
1475 1475 1472 1472 1472 1472 1473 1475 1474 1469 1467 1467 1466 1464 1461 1460 1459 1459 1459 1459 1460 1460 1461 1463 1466 1468 1471 1474 1477 1481 1484 1487 1491 1494 1498 1501 1505 1508 1511 1514 1517 1520 1523 1525
1476 1474 1471 1470 1471 1471 1470 1472 1471 1470 1467 1464 1465 1463 1459 1457 1456 1456 1457 1456 1457 1457 1458 1460 1462 1464 1467 1470 1474 1477 1481 1484 1488 1491 1495 1499 1502 1505 1508 1511 1514 1517 1520 1522
1476 1473 1471 1470 1470 1469 1468 1466 1467 1467 1470 1470 1465 1465 1458 1456 1455 1454 1454 1454 1454 1455 1456 1457 1459 1461 1464 1467 1470 1474 1477 1481 1484 1488 1491 1494 1497 1500 1504 1508 1511 1514 1516 1519
1477 1473 1471 1470 1467 1468 1467 1464 1464 1465 1469 1471 1467 1467 1460 1456 1456 1453 1452 1452 1453 1453 1454 1455 1456 1459 1462 1465 1467 1471 1474 1477 1481 1485 1488 1491 1494 1498 1501 1505 1508 1511 1513 1515
1477 1474 1473 1470 1467 1465 1465 1464 1464 1466 1469 1470 1465 1467 1463 1462 1458 1454 1452 1452 1452 1452 1453 1453 1455 1457 1460 1463 1465 1467 1471 1474 1478 1481 1485 1488 1491 1494 1498 1501 1504 1507 1509 1512
1479 1475 1472 1470 1468 1466 1466 1469 1471 1471 1470 1466 1461 1464 1464 1461 1457 1455 1453 1453 1452 1451 1451 1452 1453 1455 1457 1460 1462 1465 1468 1471 1474 1478 1481 1485 1488 1491 1494 1497 1500 1503 1505 1507
1489 1484 1475 1473 1472 1471 1470 1470 1472 1473 1470 1467 1463 1465 1463 1460 1457 1454 1454 1453 1452 1451 1451 1451 1452 1454 1456 1458 1461 1463 1466 1468 1472 1475 1478 1481 1485 1488 1491 1494 1496 1498 1501 1503
1493 1486 1476 1474 1472 1472 1472 1471 1469 1471 1471 1470 1470 1469 1462 1458 1456 1454 1453 1453 1452 1452 1452 1452 1453 1454 1455 1457 1459 1462 1464 1466 1469 1472 1475 1478 1481 1484 1487 1490 1492 1495 1497 1500
1494 1491 1481 1477 1473 1473 1473 1472 1472 1472 1471 1468 1469 1472 1469 1464 1461 1457 1455 1454 1454 1454 1453 1453 1453 1454 1455 1456 1459 1460 1462 1465 1467 1470 1473 1475 1478 1481 1484 1486 1489 1491 1493 1496
1494 1494 1488 1482 1481 1479 1477 1477 1475 1474 1471 1471 1473 1475 1469 1467 1464 1461 1459 1457 1456 1455 1455 1455 1455 1455 1455 1456 1457 1459 1461 1463 1465 1468 1470 1472 1475 1478 1480 1482 1485 1487 1489 1491
1496 1497 1495 1488 1483 1481 1480 1481 1479 1477 1479 1478 1476 1479 1468 1468 1465 1463 1461 1459 1457 1456 1456 1456 1456 1455 1455 1455 1457 1458 1460 1462 1464 1465 1467 1469 1472 1474 1476 1479 1481 1484 1486 1488
1497 1501 1500 1491 1490 1487 1485 1484 1483 1481 1481 1482 1482 1481 1469 1468 1465 1464 1463 1461 1458 1457 1457 1456 1456 1455 1455 1456 1457 1458 1459 1461 1462 1464 1465 1467 1469 1471 1473 1475 1478 1480 1482 1484
1495 1502 1503 1503 1499 1496 1492 1487 1485 1485 1484 1484 1482 1479 1473 1470 1468 1466 1464 1462 1460 1459 1458 1457 1456 1456 1456 1457 1457 1458 1459 1460 1461 1462 1463 1465 1466 1468 1470 1472 1475 1477 1479 1481
1499 1503 1502 1499 1495 1494 1492 1489 1487 1487 1487 1486 1483 1481 1478 1475 1472 1469 1467 1464 1462 1460 1459 1458 1457 1457 1457 1457 1457 1457 1458 1458 1459 1460 1461 1463 1464 1466 1468 1470 1472 1474 1476 1477
1502 1505 1502 1499 1493 1492 1490 1489 1488 1487 1486 1485 1482 1482 1478 1476 1473 1471 1468 1466 1464 1462 1460 1459 1458 1457 1457 1457 1457 1457 1457 1458 1458 1459 1460 1461 1462 1463 1465 1467 1469 1471 1473 1474
1505 1506 1505 1501 1497 1492 1494 1492 1490 1489 1488 1486 1485 1484 1479 1476 1474 1472 1470 1468 1465 1463 1461 1460 1459 1458 1457 1457 1457 1456 1456 1456 1457 1457 1458 1459 1460 1461 1463 1464 1466 1468 1470 1471
1505 1506 1507 1505 1503 1504 1497 1491 1490 1489 1487 1486 1484 1482 1480 1477 1474 1472 1470 1468 1465 1463 1462 1460 1459 1458 1457 1456 1456 1455 1455 1455 1455 1456 1456 1457 1458 1459 1461 1462 1463 1465 1467 1468
1501 1504 1508 1508 1508 1501 1494 1492 1492 1491 1488 1486 1484 1481 1479 1476 1472 1470 1469 1468 1466 1464 1462 1461 1459 1458 1456 1455 1454 1454 1453 1453 1454 1454 1455 1455 1456 1457 1458 1460 1461 1463 1465 1466
1502 1504 1509 1511 1508 1505 1497 1492 1489 1490 1488 1485 1484 1482 1479 1476 1475 1472 1469 1467 1465 1463 1462 1460 1458 1457 1455 1454 1453 1452 1452 1452 1452 1453 1453 1454 1454 1455 1456 1458 1459 1461 1462 1464
1508 1510 1513 1513 1511 1502 1496 1492 1489 1494 1492 1486 1483 1481 1479 1477 1476 1473 1469 1466 1465 1463 1461 1459 1457 1455 1454 1453 1452 1451 1451 1451 1451 1451 1451 1452 1452 1453 1454 1455 1457 1459 1460 1462
1509 1510 1511 1511 1510 1504 1494 1492 1494 1493 1488 1485 1483 1480 1478 1475 1473 1470 1468 1465 1463 1461 1459 1458 1456 1454 1453 1452 1451 1450 1449 1449 1450 1450 1449 1450 1450 1451 1452 1453 1455 1456 1458 1459
1508 1507 1506 1505 1502 1495 1493 1492 1491 1489 1487 1484 1482 1479 1477 1473 1471 1468 1466 1464 1462 1460 1458 1457 1455 1453 1452 1451 1450 1449 1448 1448 1447 1447 1448 1448 1449 1449 1450 1451 1452 1454 1455 1457
1505 1503 1503 1501 1495 1492 1491 1489 1488 1487 1485 1483 1480 1478 1475 1472 1469 1467 1465 1463 1461 1459 1457 1455 1453 1452 1451 1450 1449 1448 1447 1446 1446 1445 1446 1446 1447 1447 1448 1449 1451 1452 1453 1455
1503 1501 1501 1498 1493 1490 1488 1487 1486 1484 1482 1480 1478 1476 1473 1471 1468 1466 1463 1461 1459 1457 1456 1454 1452 1450 1449 1448 1447 1446 1446 1445 1444 1444 1444 1444 1445 1446 1447 1448 1449 1450 1452 1453
1498 1499 1499 1495 1490 1490 1487 1485 1484 1482 1479 1478 1475 1472 1471 1469 1466 1464 1462 1460 1458 1456 1454 1452 1451 1449 1448 1447 1446 1445 1444 1444 1443 1442 1443 1443 1444 1444 1445 1446 1447 1448 1450 1451